Find Starlink 30945

NORAD ID: 58874 Int'l Des: 2024-019 Owner: SPXS Country: US Constellation: starlink operational
LEOCIRCULAR

現在のビュー

3D地球を読み込み中...

About Starlink 30945

Starlink 30945 (NORAD 58874) is a starlink constellation satellite (v2 mini) launched Jan 29, 2024 by SPXS of US. It operates in LEO, CIRCULAR orbit with a mass of 730.00 kg.

次回通過

Passes for default location (London). Set your location on the main map for personalized predictions.

高度履歴

Loading altitude history...

軌道要素

1 58874U 24019X 26258.39671897 .00000117 00000-0 13783-4 0 9996
2 58874 43.0030 257.7178 0001323 265.8645 94.2055 15.27578233148096
Epoch: Sep 15, 2026 • Age: 11 hours

現在のステータス

高度 494.1 km
遠地点 / 近地点 N/A
速度 7.62 km/s
衛星直下点 -39.68°S, 104.91°W
打ち上げ日 Jan 29, 2024
運用期間 2.6 years
タイプ internet

技術仕様

分類 Payload
質量 730.00 kg
乾燥質量 700.00 kg
長さ 0.30 m
スパン 29.00 m
形状 ? Box + pan
製造者 SPXS
バスタイプ Starlink V2M
フェーズステータス In Orbit
所有者/国 SPXS/US

Most Searched